CXA9527 ZSYT-RKSI

Flight info

Callsign CXA9527
Flight time 0h 44m
Altitude 33100
Route WEH W4 IKEKA A591 AGAVO G597 GONAV
Aircraft A320/M-SDE2E3FGHIJ1RWXY/M

Departure

Time 2026-05-05 12:50
Airport Yantai Penglai International Airport (ZSYT)

Arrival

Time 2026-05-05 13:34
Airport Incheon International Airport (RKSI)
Time Latitude Longitude Altitude Speed Heading
2026-05-05 12:23 37.65660 120.98367 161 ft 0 kts 104°
2026-05-05 12:40 37.65662 120.98358 161 ft 2 kts 104°
2026-05-05 12:40 37.65666 120.98340 161 ft 2 kts 104°
2026-05-05 12:40 37.65670 120.98322 161 ft 2 kts 104°
2026-05-05 12:41 37.65673 120.98303 161 ft 2 kts 104°
2026-05-05 12:41 37.65677 120.98285 161 ft 2 kts 104°
2026-05-05 12:41 37.65682 120.98268 161 ft 2 kts 140°
2026-05-05 12:41 37.65696 120.98261 161 ft 2 kts 184°
2026-05-05 12:42 37.65707 120.98264 161 ft 0 kts 216°
2026-05-05 12:42 37.65712 120.98270 161 ft 1 kts 220°
2026-05-05 12:42 37.65713 120.98271 161 ft 0 kts 220°
2026-05-05 12:44 37.65704 120.98262 161 ft 2 kts 218°
2026-05-05 12:44 37.65683 120.98240 161 ft 5 kts 219°
2026-05-05 12:44 37.65657 120.98200 161 ft 6 kts 257°
2026-05-05 12:44 37.65684 120.98141 161 ft 9 kts 310°
2026-05-05 12:45 37.65731 120.98074 161 ft 11 kts 312°
2026-05-05 12:45 37.65787 120.97996 161 ft 12 kts 312°
2026-05-05 12:45 37.65783 120.97894 161 ft 13 kts 229°
2026-05-05 12:45 37.65708 120.97809 161 ft 15 kts 222°
2026-05-05 12:46 37.65629 120.97716 161 ft 16 kts 220°
2026-05-05 12:46 37.65543 120.97620 161 ft 17 kts 222°
2026-05-05 12:46 37.65453 120.97516 161 ft 17 kts 222°
2026-05-05 12:46 37.65360 120.97409 161 ft 18 kts 221°
2026-05-05 12:47 37.65263 120.97299 161 ft 19 kts 222°
2026-05-05 12:47 37.65165 120.97186 161 ft 19 kts 222°
2026-05-05 12:47 37.65063 120.97070 161 ft 19 kts 222°
2026-05-05 12:47 37.64961 120.96953 161 ft 20 kts 222°
2026-05-05 12:48 37.64855 120.96832 161 ft 20 kts 222°
2026-05-05 12:48 37.64780 120.96738 161 ft 10 kts 246°
2026-05-05 12:48 37.64803 120.96651 161 ft 12 kts 309°
2026-05-05 12:48 37.64875 120.96596 161 ft 13 kts 10°
2026-05-05 12:49 37.64923 120.96633 161 ft 0 kts 41°
2026-05-05 12:49 37.65065 120.96792 161 ft 78 kts 43°
2026-05-05 12:50 37.65722 120.97545 165 ft 171 kts 42°
2026-05-05 12:50 37.66671 120.98631 933 ft 193 kts 42°
2026-05-05 12:50 37.67600 120.99696 2272 ft 184 kts 42°
2026-05-05 12:50 37.68550 121.00784 3205 ft 196 kts 42°
2026-05-05 12:51 37.69592 121.01975 4037 ft 214 kts 42°
2026-05-05 12:51 37.70745 121.03293 4845 ft 235 kts 42°
2026-05-05 12:51 37.71995 121.04721 5791 ft 252 kts 42°
2026-05-05 12:51 37.73273 121.06181 7028 ft 255 kts 42°
2026-05-05 12:52 37.74572 121.07664 8249 ft 259 kts 42°
2026-05-05 12:52 37.75909 121.09195 9443 ft 264 kts 43°
2026-05-05 12:52 37.77036 121.10969 10560 ft 269 kts 65°
2026-05-05 12:52 37.77445 121.13258 11684 ft 273 kts 91°
2026-05-05 12:53 37.77030 121.15585 12566 ft 285 kts 116°
2026-05-05 12:53 37.75817 121.17619 13280 ft 303 kts 133°
2026-05-05 12:53 37.74296 121.19611 14003 ft 321 kts 135°
2026-05-05 12:53 37.72792 121.21706 14906 ft 331 kts 126°
2026-05-05 12:54 37.70303 121.26627 16938 ft 340 kts 122°
2026-05-05 12:54 37.69046 121.29143 17894 ft 345 kts 122°
2026-05-05 12:54 37.67746 121.31677 18821 ft 350 kts 123°
2026-05-05 12:55 37.66394 121.34262 19729 ft 355 kts 123°
2026-05-05 12:55 37.65052 121.36855 20595 ft 359 kts 119°
2026-05-05 12:55 37.64166 121.39812 21426 ft 364 kts 103°
2026-05-05 12:55 37.63676 121.42918 22263 ft 368 kts 99°
2026-05-05 12:56 37.63225 121.46133 23065 ft 373 kts 100°
2026-05-05 12:56 37.62753 121.49340 23832 ft 378 kts 100°
2026-05-05 12:56 37.62248 121.52576 24574 ft 382 kts 101°
2026-05-05 12:56 37.61708 121.55890 25299 ft 387 kts 101°
2026-05-05 12:57 37.61156 121.59185 26012 ft 390 kts 102°
2026-05-05 12:57 37.60589 121.62517 26884 ft 388 kts 102°
2026-05-05 12:57 37.60023 121.65805 27765 ft 386 kts 102°
2026-05-05 12:57 37.59457 121.69070 28595 ft 384 kts 102°
2026-05-05 12:58 37.58886 121.72351 29393 ft 383 kts 102°
2026-05-05 12:58 37.58320 121.75590 30158 ft 382 kts 102°
2026-05-05 12:58 37.57754 121.78826 30908 ft 380 kts 102°
2026-05-05 12:58 37.57180 121.82094 31643 ft 379 kts 102°
2026-05-05 12:59 37.56613 121.85317 32342 ft 378 kts 102°
2026-05-05 12:59 37.56046 121.88535 33007 ft 377 kts 102°
2026-05-05 12:59 37.55482 121.91727 33632 ft 376 kts 102°
2026-05-05 13:00 37.54349 121.98126 34653 ft 379 kts 102°
2026-05-05 13:00 37.53770 122.01391 34971 ft 384 kts 102°
2026-05-05 13:01 37.51928 122.11726 35014 ft 425 kts 102°
2026-05-05 13:01 37.51275 122.15383 35012 ft 437 kts 102°
2026-05-05 13:01 37.50601 122.19143 35012 ft 449 kts 102°
2026-05-05 13:01 37.49900 122.23050 35011 ft 459 kts 102°
2026-05-05 13:02 37.48486 122.30907 35010 ft 466 kts 102°
2026-05-05 13:02 37.47043 122.38886 35011 ft 467 kts 102°
2026-05-05 13:03 37.45608 122.46794 35011 ft 467 kts 102°
2026-05-05 13:03 37.44159 122.54746 35011 ft 467 kts 102°
2026-05-05 13:04 37.42710 122.62662 35011 ft 467 kts 102°
2026-05-05 13:04 37.41245 122.70638 35011 ft 467 kts 103°
2026-05-05 13:05 37.39788 122.78536 35011 ft 467 kts 103°
2026-05-05 13:05 37.38314 122.86494 35011 ft 467 kts 103°
2026-05-05 13:06 37.36847 122.94387 35011 ft 467 kts 103°
2026-05-05 13:06 37.35364 123.02327 35011 ft 467 kts 103°
2026-05-05 13:07 37.33877 123.10264 35011 ft 467 kts 103°
2026-05-05 13:07 37.32390 123.18166 35011 ft 467 kts 103°
2026-05-05 13:08 37.30902 123.26041 35011 ft 467 kts 103°
2026-05-05 13:08 37.29398 123.33971 35011 ft 467 kts 103°
2026-05-05 13:09 37.27889 123.41901 35011 ft 467 kts 103°
2026-05-05 13:09 37.26384 123.49776 35011 ft 467 kts 103°
2026-05-05 13:10 37.24863 123.57697 35011 ft 467 kts 103°
2026-05-05 13:10 37.23348 123.65565 35011 ft 467 kts 104°
2026-05-05 13:11 37.21818 123.73478 35011 ft 467 kts 104°
2026-05-05 13:11 37.20293 123.81339 35011 ft 467 kts 104°
2026-05-05 13:12 37.18747 123.89267 35011 ft 467 kts 104°
2026-05-05 13:12 37.17397 123.97159 34744 ft 467 kts 98°
2026-05-05 13:13 37.17021 124.01193 33990 ft 463 kts 94°
2026-05-05 13:13 37.16878 124.05167 33246 ft 459 kts 90°
2026-05-05 13:13 37.16942 124.09164 32493 ft 455 kts 88°
2026-05-05 13:13 37.17075 124.13088 31746 ft 452 kts 87°
2026-05-05 13:14 37.17216 124.16985 30999 ft 449 kts 87°
2026-05-05 13:14 37.17352 124.20847 30253 ft 446 kts 87°
2026-05-05 13:14 37.17484 124.24722 29501 ft 443 kts 87°
2026-05-05 13:14 37.17604 124.28516 28758 ft 440 kts 88°
2026-05-05 13:15 37.17706 124.32348 28004 ft 437 kts 88°
2026-05-05 13:15 37.17800 124.36124 27259 ft 442 kts 88°
2026-05-05 13:15 37.17894 124.39955 26512 ft 447 kts 88°
2026-05-05 13:15 37.17989 124.43854 25760 ft 449 kts 88°
2026-05-05 13:16 37.18084 124.47783 25004 ft 451 kts 88°
2026-05-05 13:16 37.18176 124.51674 24259 ft 452 kts 88°
2026-05-05 13:16 37.18269 124.55619 23551 ft 453 kts 88°
2026-05-05 13:16 37.18361 124.59536 23128 ft 455 kts 88°
2026-05-05 13:17 37.18454 124.63595 23006 ft 472 kts 88°
2026-05-05 13:17 37.18547 124.67704 23003 ft 478 kts 88°
2026-05-05 13:17 37.18641 124.71896 23005 ft 479 kts 88°
2026-05-05 13:17 37.18732 124.76053 23006 ft 479 kts 88°
2026-05-05 13:18 37.18823 124.80267 23007 ft 479 kts 88°
2026-05-05 13:18 37.18911 124.84418 23007 ft 479 kts 88°
2026-05-05 13:18 37.18997 124.88565 23007 ft 479 kts 88°
2026-05-05 13:18 37.19083 124.92768 23007 ft 479 kts 88°
2026-05-05 13:19 37.19168 124.96947 23007 ft 479 kts 88°
2026-05-05 13:19 37.19250 125.01073 23007 ft 479 kts 88°
2026-05-05 13:19 37.19332 125.05286 22972 ft 480 kts 88°
2026-05-05 13:19 37.19410 125.09380 22350 ft 469 kts 88°
2026-05-05 13:20 37.19485 125.13416 21602 ft 457 kts 88°
2026-05-05 13:20 37.19557 125.17326 20858 ft 447 kts 88°
2026-05-05 13:20 37.19626 125.21143 20114 ft 438 kts 88°
2026-05-05 13:20 37.19693 125.24931 19360 ft 429 kts 88°
2026-05-05 13:21 37.19758 125.28602 18615 ft 422 kts 88°
2026-05-05 13:21 37.19820 125.32259 17859 ft 415 kts 88°
2026-05-05 13:21 37.19880 125.35819 17112 ft 410 kts 88°
2026-05-05 13:21 37.19938 125.39361 16365 ft 410 kts 88°
2026-05-05 13:22 37.19996 125.42947 15636 ft 412 kts 88°
2026-05-05 13:22 37.20093 125.46536 15162 ft 412 kts 84°
2026-05-05 13:22 37.20806 125.49975 15006 ft 413 kts 66°
2026-05-05 13:22 37.22212 125.53140 15010 ft 413 kts 58°
2026-05-05 13:23 37.23723 125.56180 15007 ft 413 kts 57°
2026-05-05 13:23 37.25238 125.59209 14804 ft 410 kts 57°
2026-05-05 13:23 37.26730 125.62211 14297 ft 397 kts 58°
2026-05-05 13:23 37.28154 125.65102 13578 ft 390 kts 58°
2026-05-05 13:24 37.29575 125.67999 12820 ft 385 kts 58°
2026-05-05 13:24 37.30955 125.70820 12074 ft 380 kts 58°
2026-05-05 13:24 37.32307 125.73622 11326 ft 376 kts 61°
2026-05-05 13:24 37.33133 125.76696 10556 ft 371 kts 84°
2026-05-05 13:25 37.32939 125.79865 9819 ft 367 kts 101°
2026-05-05 13:25 37.32545 125.82976 9066 ft 363 kts 92°
2026-05-05 13:25 37.33009 125.86060 8298 ft 359 kts 66°
2026-05-05 13:25 37.34433 125.88546 7561 ft 354 kts 46°
2026-05-05 13:26 37.36177 125.90742 6806 ft 351 kts 45°
2026-05-05 13:26 37.37855 125.92901 6167 ft 344 kts 46°
2026-05-05 13:26 37.39469 125.95055 5666 ft 334 kts 47°
2026-05-05 13:26 37.41016 125.97173 5166 ft 325 kts 48°
2026-05-05 13:27 37.42503 125.99246 4668 ft 318 kts 48°
2026-05-05 13:27 37.43954 126.01289 4169 ft 311 kts 48°
2026-05-05 13:27 37.45377 126.03304 3668 ft 306 kts 48°
2026-05-05 13:27 37.46786 126.05307 3197 ft 299 kts 49°
2026-05-05 13:28 37.48131 126.07222 3008 ft 284 kts 49°
2026-05-05 13:28 37.49389 126.09016 2999 ft 264 kts 49°
2026-05-05 13:28 37.50595 126.10738 3001 ft 261 kts 49°
2026-05-05 13:28 37.51796 126.12452 3002 ft 261 kts 49°
2026-05-05 13:29 37.52989 126.14157 3003 ft 261 kts 49°
2026-05-05 13:29 37.54189 126.15872 3003 ft 261 kts 49°
2026-05-05 13:29 37.55394 126.17594 3003 ft 261 kts 49°
2026-05-05 13:29 37.56581 126.19292 3003 ft 261 kts 49°
2026-05-05 13:30 37.57712 126.21090 3003 ft 261 kts 53°
2026-05-05 13:30 37.58759 126.22942 3003 ft 261 kts 54°
2026-05-05 13:30 37.59793 126.24835 3001 ft 261 kts 60°
2026-05-05 13:30 37.60291 126.26987 2996 ft 261 kts 89°
2026-05-05 13:31 37.59895 126.29215 2990 ft 261 kts 117°
2026-05-05 13:31 37.58744 126.30941 2809 ft 260 kts 140°
2026-05-05 13:31 37.57269 126.32238 2474 ft 259 kts 147°
2026-05-05 13:31 37.55772 126.33453 2132 ft 250 kts 146°
2026-05-05 13:32 37.54394 126.34643 1805 ft 228 kts 144°
2026-05-05 13:32 37.53155 126.35751 1514 ft 213 kts 144°
2026-05-05 13:32 37.51997 126.36789 1323 ft 193 kts 144°
2026-05-05 13:32 37.50935 126.37734 1052 ft 179 kts 144°
2026-05-05 13:33 37.49954 126.38605 800 ft 165 kts 144°
2026-05-05 13:33 37.49055 126.39404 563 ft 150 kts 144°
2026-05-05 13:33 37.48241 126.40128 338 ft 137 kts 144°
2026-05-05 13:33 37.47503 126.40788 149 ft 127 kts 144°
2026-05-05 13:34 37.46784 126.41435 47 ft 125 kts 144°
2026-05-05 13:34 37.46136 126.42013 9 ft 86 kts 145°
2026-05-05 13:34 37.45800 126.42303 9 ft 51 kts 146°
2026-05-05 13:34 37.45597 126.42495 9 ft 20 kts 127°
2026-05-05 13:35 37.45532 126.42651 9 ft 20 kts 115°
2026-05-05 13:35 37.45470 126.42813 9 ft 20 kts 115°
2026-05-05 13:35 37.45388 126.42936 9 ft 8 kts 144°
2026-05-05 13:35 37.45334 126.42985 9 ft 10 kts 144°
2026-05-05 13:36 37.45269 126.43044 9 ft 12 kts 144°
2026-05-05 13:36 37.45193 126.43111 9 ft 14 kts 144°
2026-05-05 13:36 37.45110 126.43187 9 ft 15 kts 144°
2026-05-05 13:36 37.45094 126.43291 9 ft 15 kts 47°
2026-05-05 13:37 37.45163 126.43403 9 ft 16 kts 58°
2026-05-05 13:37 37.45228 126.43529 9 ft 17 kts 56°
2026-05-05 13:37 37.45297 126.43649 13 ft 16 kts 51°
2026-05-05 13:37 37.45360 126.43752 18 ft 13 kts 54°
2026-05-05 13:38 37.45411 126.43842 21 ft 12 kts 51°
2026-05-05 13:38 37.45412 126.43932 20 ft 6 kts 112°
2026-05-05 13:38 37.45391 126.43998 18 ft 4 kts 111°
2026-05-05 13:38 37.45387 126.44011 18 ft 0 kts 111°